473P/NEAT (2001)

Japanese version
Home page
Updated on February 21, 2024

---------------------------------------------------------------------

* Profile

Designation 473P/2001 Q6
Discovery Date August 28, 2001
Magnitude 17.6 mag
Discoverer Near-Earth-Asteroid Tracking Team (Jet Propulsion Laboratory)

* Orbital Elements

                    Epoch = 2001 Nov. 27.0 TT
     T = 2001 Nov.  9.46803 TT        Peri. =  43.33085
     e = 0.8238140                    Node  =  22.13540 2000.0
     q = 1.4081706 AU                 Incl. =  56.85456
       a =  7.9925205 AU   n = 0.04361927   P =  22.60 years

* Finding Charts

* Magnitudes Graph

        m1 = 14.0 + 5 log d +  10.0 log r  [   ,-50]  (             - 2001 Sept.20)
        m1 = -5.0 + 5 log d + 110   log r  [-50,  0]  (2001 Sept.20 - 2001 Nov.  9)
        m1 =  6.8 + 5 log d +  30.0 log r  [  0,   ]  (2001 Nov . 9 -             )

---------------------------------------------------------------------

The orbital elements are calculated by Dr. Brian G. Marsden and printed on The orbital elements are printed on CBET 5325.
The charts are made with StellaNavigator Ver.2.0 for Windows (AstroArts / ASCII).
The magnitudes graphs are made with Comet for Windows.

---------------------------------------------------------------------

Copyright(C) Seiichi Yoshida (comet@aerith.net). All rights reserved.